ONEWEB-0066 (45424 NORAD) Tracking and Keplerian Element Data

This shows tracking and keplerian element data for the satellite.

Feedback or suggestion? Click here.




ElementValue
Catalog45424
NameONEWEB-0066
Epoch Orbit3222
Epoch Day297.91667824
Epoch Year2020
RAAN71.6161
Inclination87.7903
Eccentricity0.0022069
Argument of Perigee234.7747
Mean Anonmoly332.8078
Mean Motion13.96664993
Decay Rate-0.00020359
L11 45424U 20020A 20297.91667824 -.00020359 00000-0 -14725-1 0 9997
L22 45424 87.7903 71.6161 0022069 234.7747 332.8078 13.96664993 32226

Live tracking and technical data element details for ONEWEB-0066 (NORAD 45424). ONEWEB-0066 can be tracked NOW for your location showing map with azimuth and elevation plus other details from your city location.

Track the satellite on the map from your city or location and see movement details for azimuth, elevation, latitude, longitude, range, height, and movement on the map or in text.







IsCatalogInMostPopularTable: catalog: 45424, numindb: 51
Update: records affected: 1



GetName: 45424 ONEWEB-0066

Hit Count: updated at: Sat, 24 Oct 2020 23:39:43 GMT